Regional Weather Roundup
Issued by NWS

Home | Current Version | Previous Version | Text Only | Print | Product List | Glossary Off
Versions: 1 2 3 4 5 6 7 8 9 10 11 12 13 14 15 16 17 18 19 20 21 22 23 24 25 26 27 28 29 30 31 32 33 34 35 36 37 38 39 40 41 42 43 44 45 46 47 48

000
ASUS45 KBOU 112010
RWRCO

WEATHER ROUNDUP FOR COLORADO
NATIONAL WEATHER SERVICE DENVER/BOULDER CO
200 PM MDT FRI JUL 11 2014

NOTE: "FAIR" INDICATES FEW OR NO CLOUDS BELOW 12000 FEET WITH NO
SIGNIFICANT WEATHER AND/OR OBSTRUCTIONS TO VISIBILITY.

COZ001>005-013-030-031-112100-
...NORTHWEST COLORADO...

CITY           SKY/WX    TMP DP  RH WIND       PRES   REMARKS
CRAIG          TSTM      75  53  46 SW20G36   30.20S
HAYDEN         MOSUNNY   81  50  34 NW3       30.21F
MEEKER         MOSUNNY   81  52  36 W6        30.19F THUNDER
MOUNT WERNER   NOT AVBL
STEAMBOAT SPGS MOSUNNY   77  50  38 S6        30.25S
WALDEN         CLOUDY    73  43  33 W9        30.33F
$$

COZ006>008-011-112100-
...WEST CENTRAL VALLEYS...

CITY           SKY/WX    TMP DP  RH WIND       PRES   REMARKS
GRAND JUNCTION SUNNY     88  52  29 NW8G18    30.07F
MONTROSE       MOSUNNY   84  50  30 SW15G21   30.18S
EAGLE          MOSUNNY   81  54  39 W13       30.21F
RIFLE          MOSUNNY   86  52  30 W9        30.11F
DELTA          MOSUNNY   93  49  22 S8        30.10F
NUCLA          MOSUNNY   90  43  19 W8        30.20F
$$

COZ017>023-064>068-112100-
...SOUTHWEST COLORADO...

CITY           SKY/WX    TMP DP  RH WIND       PRES   REMARKS
DURANGO        MOSUNNY   83  48  29 VRB6      30.23F
CORTEZ         SUNNY     89  46  22 S9G20     30.18F
PAGOSA SPRINGS MOSUNNY   82  40  22 S6        30.31F THUNDER
TELLURIDE      PTSUNNY   72  45  37 W3        30.44S
WOLF CREEK PAS NOT AVBL
$$

COZ009-010-012-014-032>034-037-058>063-112100-
...CENTRAL COLORADO...

CITY           SKY/WX    TMP DP  RH WIND       PRES   REMARKS
ASPEN          PTSUNNY   73  55  53 SW7       30.31S
BUENA VISTA    CLOUDY    78  42  28 S14       30.30S
COPPER MTN     CLOUDY    61  43  51 W12       30.66F THUNDER
BERTHOUD PASS  CLOUDY    50  34  53 MISG      30.71S THUNDER
COTTONWOOD PAS CLOUDY    72  36  26 W12       30.47F THUNDER
GUNNISON       PTSUNNY   75  48  38 N13       30.33S
KREMMLING      MOSUNNY   82  41  23 N9        30.26F
LEADVILLE      PTSUNNY   60  52  74 E5        30.47R
SALIDA         CLOUDY   N/A N/A N/A SW13G24   30.35S
SUNLIGHT       TSTM      55  52  88 CALM      30.58S
WILKERSON PASS CLOUDY    64  37  36 NE5       30.62F
$$

COZ069>075-112100-
...SAN LUIS VALLEY/SANGRE DE CRISTO MOUNTAINS...

CITY           SKY/WX    TMP DP  RH WIND       PRES   REMARKS
ALAMOSA        PTSUNNY   81  44  27 E3        30.28S
LA VETA PASS   PTSUNNY   72  45  37 NE6       30.52S
SAGUACHE       PTSUNNY   70  50  49 N14       30.35S
$$

COZ035-036-038>040-112100-
...NORTHERN COLORADO FRONT RANGE...

CITY           SKY/WX    TMP DP  RH WIND       PRES   REMARKS
DENVER INTL AP MOSUNNY   91  50  24 E13       30.11F
DMNS CITY PARK   N/A     90  50  26 S5G12     30.10F
AURORA         MOSUNNY   89  55  31 E13       30.13F
FRONT RANGE AP PTSUNNY   91  54  27 E9        30.14F
ERIE MUNI ARPT PTSUNNY   88  52  28 E6        30.09F
BOULDER MUN AP PTSUNNY   84  54  34 NE5       30.11F
CENTENNIAL     PTSUNNY   88  47  24 NE8G17    30.14F
BROOMFIELD     NOT AVBL
FORT COLLINS   MOSUNNY   90  55  31 E7        30.08F
LONGMONT       MOSUNNY   90  51  26 CALM      30.11F
$$

COZ041-046-047-076>085-087-088-112100-
...PIKES PEAK/PALMER DIVIDE AND SOUTHERN FOOTHILLS...

CITY           SKY/WX    TMP DP  RH WIND       PRES   REMARKS
COLO. SPRINGS  PTSUNNY   89  45  21 SE6       30.16F THUNDER
A. F. ACADEMY  MOSUNNY   83  46  26 S7        30.19S
ELLICOTT       NOT AVBL
FALCON         PTSUNNY   83  44  25 NE13      30.23F
FORT CARSON    PTSUNNY   89  46  22 E3        30.13F
LIMON          MOSUNNY   89  55  31 E13       30.12F
MONUMENT HILL  MOSUNNY   81  41  24 SE9       30.24F
TRINIDAD       SUNNY     92  45  19 N6        30.13F
$$

COZ042>045-048>051-090-091-112100-
...NORTHEAST COLORADO...

CITY           SKY/WX    TMP DP  RH WIND       PRES   REMARKS
GREELEY ARPT   NOT AVBL
AKRON          SUNNY     88  58  36 VRB7      30.07F
BURLINGTON     SUNNY     93  55  27 SW6       30.03F
WRAY             N/A     94  57  28 NE6G16    30.01F
STERLING       SUNNY     91  68  46 NE10      30.02F
HOLYOKE        SUNNY     93  64  38 E10       30.04S
FORT MORGAN    SUNNY     92  50  23 E5        30.06F
$$

COZ086-089-092>099-112100-
...SOUTHEAST COLORADO...

CITY           SKY/WX    TMP DP  RH WIND       PRES   REMARKS
PUEBLO         SUNNY     96  52  22 SE15G21   30.02F
LA JUNTA       SUNNY     96  53  23 VRB6      29.99F
LAMAR          MOSUNNY  103  47  15 S18G25    29.92F
SPRINGFIELD      N/A     93  50  23 S23G33    30.06F
$$


USA.gov is the U.S. government's official web portal to all federal, state and local government web resources and services.